This is the latest recevied weather packets stored in our database for station/object K5SVV. If no packets are shown the sender has not sent any weather packets the latest 10 day(s).
| Time | Temp. | Humidity | Pressure | Rain* | Wind** | Luminosity | Snow |
|---|---|---|---|---|---|---|---|
| 1788313909 | 31.11° C | 57% | 1012.9 hPa | 0 mm | - | 0 W/m² | - |
| 1788313603 | 31.67° C | 57% | 1012.8 hPa | 0 mm | - | 0 W/m² | - |
| 1788313298 | 31.67° C | 56% | 1012.7 hPa | 0 mm | - | 0 W/m² | - |
| 1788312997 | 31.67° C | 56% | 1012.7 hPa | 0 mm | - | 0 W/m² | - |
| 1788312694 | 31.67° C | 55% | 1012.5 hPa | 0 mm | - | 0 W/m² | - |
| 1788312389 | 31.67° C | 55% | 1012.9 hPa | 0 mm | - | 0 W/m² | - |
| 1788312084 | 31.67° C | 54% | 1012.6 hPa | 0 mm | - | 0 W/m² | - |
| 1788311780 | 32.22° C | 54% | 1012.9 hPa | 0 mm | - | 0 W/m² | - |
| 1788311479 | 32.22° C | 54% | 1012.5 hPa | 0 mm | - | 0 W/m² | - |
| 1788311173 | 32.22° C | 53% | 1012.6 hPa | 0 mm | - | 0 W/m² | - |
| 1788310869 | 32.22° C | 53% | 1012.7 hPa | 0 mm | - | 0 W/m² | - |
| 1788310566 | 32.78° C | 52% | 1012.7 hPa | 0 mm | - | 0 W/m² | - |
| 1788310263 | 32.78° C | 52% | 1012.5 hPa | 0 mm | - | 3 W/m² | - |
| 1788309962 | 33.33° C | 51% | 1012.4 hPa | 0 mm | - | 6 W/m² | - |
| 1788309657 | 33.33° C | 51% | 1012.5 hPa | 0 mm | - | 10 W/m² | - |
| 1788309352 | 33.89° C | 50% | 1012.5 hPa | 0 mm | - | 14 W/m² | - |
| 1788309048 | 33.89° C | 49% | 1012.5 hPa | 0 mm | - | 19 W/m² | - |
| 1788308743 | 34.44° C | 49% | 1012.6 hPa | 0 mm | - | 28 W/m² | - |
| 1788308438 | 34.44° C | 48% | 1012.4 hPa | 0 mm | - | 35 W/m² | - |
| 1788308133 | 34.44° C | 48% | 1012.5 hPa | 0 mm | - | 43 W/m² | - |
| 1788307828 | 35° C | 48% | 1012.7 hPa | 0 mm | - | 48 W/m² | - |
| 1788307522 | 35° C | 48% | 1012.7 hPa | 0 mm | - | 50 W/m² | - |
| 1788307218 | 34.44° C | 48% | 1012.6 hPa | 0 mm | - | 51 W/m² | - |
| 1788306913 | 34.44° C | 48% | 1012.7 hPa | 0 mm | - | 55 W/m² | - |
| 1788306608 | 35° C | 48% | 1012.8 hPa | 0 mm | - | 48 W/m² | - |
* Rain latest hour (hover to see other rain measurements)
** Current wind speed in m/s (hover to see current wind gust speed)